Погода в Нукусе

Погода в Нукусе : погода сейчас, прогноз погоды и архив. Всё, что Вы хотите узнать о погоде в Нукусе!

Поиск расширенной информации на нашем сайте:

Полезная информация: Дома и земельные участки: оформление прав на земельный участок.

Другие новости

Новости СМИ2

Главная страница сайта

Новости сайта

03.07.2017

Напоминаем, что на нашем специализированном сайте Метеоцентр.Азия вы можете получить высокодетализированные автоматические прогнозы погоды по пунктам России, СНГ и мира в авиационном формате (включающие направление и скорость ветра, видимость, явления погоды, количество и форму облачности, нижнюю и верхнюю границу облачности).

Рекомендуем: торчки: полный улёт смотреть онлайн

Погода в Нукусе - сегодня

Время (UTC), дата Ветер
(°,м/с) 
Видим.   Явления Облачность Т
(°С)
Тd
(°С)
f(%) Тe
(°С)
Pmin
(гПа)
dP
(гПа)
Po
(мм)
O2
(г/м3)
Тmin Tmax R s Состояние
почвы
09 19.07.17 350 (С) 20000 м    1/1 1500 м 
[Cu hum]
+35.8 +7.1 17 +36  1013.3  -1  754  267           
12 19.07.17 010 (С) 20000 м    1/1 1500 м 
[Cu hum]
+36.4 +4.6 14 +36  1011.4  -1.8  752  267           
15 19.07.17 010 (С) 20000 м    ясно 
+34.2 +6.7 18 +34  1011.2  -0.4  752  268    +36.7       
18 19.07.17 010 (С) 20000 м    ясно 
+27.2 +11.8 38 +31  1011.9  0.6  752  274    +36.7       
21 19.07.17 360 (С) 20000 м    ясно 
+23.5 +12.7 51 +28  1011.3  -0.7  752  277           
00 20.07.17 нст () 20000 м    ясно 
+21.8 +11 50 +24  1011.2  -0.1  752  279    +1.7       
03 20.07.17 нст () 20000 м    ясно 
+27.5 +7.4 28 +28  1011.7  0.6             
06 20.07.17 290 (З) 20000 м    3/0 верхняя 
[Ci fib]
+34.1 +5.9 17 +34  1011.6  752  269  +21.2         
09 20.07.17 350 (С) 20000 м    1/0 верхняя 
[Ci fib]
+35.9 +7 17 +36  1010.2  -1.2  751  267           
12 20.07.17 360 (С) 20000 м    3/0 верхняя 
[Ci]
+36.4 +6.1 15 +36  1008.8  -1.4  750  266           
15 20.07.17 020 (С) 20000 м    3/0 верхняя 
[Ci fib]
+34.1 +4.8 16 +34  1008.7  -0.3  750  268    +36.9       
18 20.07.17 020 (С) 20000 м    ясно 
+26.6 +9.2 33 +27  1010  1.2  751  274    +36.9       
21 20.07.17 030 (СВ) 20000 м    ясно 
+23.1 +9.7 43 +24  1009.8  -0.3  751  277           
00 21.07.17 010 (С) 20000 м    3/0 верхняя 
[Ci fib]
+20.5 +9.9 51 +22  1010.6  0.8  751  280           
03 21.07.17 050 (СВ) 20000 м    1/0 верхняя 
[Ci fib]
+26.9 +6.8 28 +27  1011.6  1.1  752  275           
06 21.07.17 050 (СВ) 20000 м    ясно 
+34.7 +2.5 13 +35  1011.3  752  269  +20.1         
09 21.07.17 360 (С) 20000 м    ясно 
+36.4 +5.6 15 +36  1010.5  -0.8  752  266           
12 21.07.17 010 (С) 20000 м    ясно 
+37.9 +5.5 14 +38  1009.2  -1.3  751  265           
15 21.07.17 360 (С) 20000 м    ясно 
+35.1 +8.5 20 +35  1009  -0.2  751  267    +38.3       
18 21.07.17 010 (С) 20000 м    ясно 
+27.5 +13.1 41 +33  1010.4  1.1  751  273    +38.3       
21 21.07.17 360 (С) 20000 м    ясно 
+24.5 +12.9 48 +30  1010.3  -0.1  751  275           
00 22.07.17 010 (С) 20000 м    ясно 
+22.5 +11 48 +25  1010.8  0.4  752  278           
03 22.07.17 040 (СВ) 20000 м    ясно 
+28.9 +7.7 26 +29  1011.7             
06 22.07.17 010 (С) 20000 м    ясно 
+37.1 +5.1 14 +37  1012.2  0.8  753  266  +22.1         
09 22.07.17 350 (С) 20000 м    1/1 1500 м 
[Cu med, cong]
+38.6 +6.4 14 +39  1011.4  -0.8  752  265           
Время (UTC), дата Ветер
(°,м/с) 
Видим.   Явления Облачность Т
(°С)
Тd
(°С)
f(%) Тe
(°С)
Pmin
(гПа)
dP
(гПа)
Po
(мм)
O2
(г/м3)
Тmin Tmax R s Состояние
почвы

Для получения пояснительной информации подведите курсор к названию столбца.

ПОГОДА в Нукусе - архив

Всё, что Вы хотите узнать о погоде в Нукусе - удобно и подробно!

Выберите нужную дату (начиная с 1 января 2015* года) и нажмите кнопку "Найти".
Будут отображены архивные сводки погоды по пункту Нукус, начиная с указанной даты.


Отображать данные в формате CSV (для использования в таблицах Excel)


Внимание! Наш архив погоды предназначен исключительно для личного некоммерческого использования в познавательных целях. Если Вам необходимы официальные справки о состоянии погоды (для производственных, юридических, коммерческих и т.п. целей), обращайтесь в органы Росгидромета.

*Примечание: данная дата относится к архиву по метеостанциям СССР (Россия, СНГ, Балтия).
Архив по метеостанциям Зарубежной Европы и Азии (кроме Китая) хранится 10 дней, по другим регионам земного шара (Китай, Африка, Америка, Австралия, Океания) - 1 день.

Нукус - район местоположения метеостанции


Название, широта, долгота, высота метеостанции:
Нукус 42.4°ш. 59.6°д. 77 м над ур. моря [Узбекистан]

Дополнительная информация

В oтличие oт бoльшинства пoгoдных сайтoв мы публикуем пoдрoбную метеoинфoрмацию в детальнoм прoфессиoнальнoм фoрмате.

Характеристики температуры и влажнoсти вoздуха измеряются на высoте 2 м в тени вдали oт зданий и деревьев.
Скoрoсть ветра измеряется на высoте 10 м (на урoвне рoста челoвека скoрoсть ветра ниже в 1.5-2 раза). Если метеoстанция нахoдится в гoрoде или в лесу, тo скoрoсть ветра занижена на 2-4 м/с пo сравнению с oткрытым местoм. Скoрoсть ветра над акватoриями крупных рек и oзёр, а также на вершинах хoлмoв на 2-5 м/с выше, чем в oбычных услoвиях.
Атмoсфернoе давление в разных тoчках местнoсти мoжет значительнo oтличаться oт давления на метеoстанции, в зависимoсти oт услoвий рельефа (при пoдъёме на 10 м давление пoнижается примернo на 1 мм рт.ст.).